Location: Augustenthal
(51.7167°N, 10.2833°E)
Time: 16:28:51
(UTC+00:00)

Cosmos 2263 Rocket - Pass Details

Date: 18 May 2021
Orbit: 822 x 850 km, 71.0° (Epoch: 21 June)

Event Time Altitude Azimuth Distance (km) Brightness Sun altitude
Rises 23:41:38 0° 330° (NNW) 3,397 6.2 -18.3°
Reaches altitude 10° 23:44:24 10° 342° (NNW) 2,464 5.6 -18.2°
Maximum altitude 23:49:19 30° 42° (NE) 1,486 4.0 -18.1°
Drops below altitude 10° 23:54:15 10° 103° (ESE) 2,469 4.6 -18.0°
Sets 23:57:01 0° 114° (ESE) 3,404 5.2 -17.9°
